Date,TemperatureHighF,TemperatureAvgF,TemperatureLowF,DewpointHighF,DewpointAvgF,DewpointLowF,HumidityHigh,HumidityAvg,HumidityLow,PressureMaxIn,PressureMinIn,WindSpeedMaxMPH,WindSpeedAvgMPH,GustSpeedMaxMPH,PrecipitationSumIn
2014-1-1,98,76,63,64,59,52,87,60,24,29.98,29.73,9,1,12,0.00
2014-1-2,108,84,70,65,54,30,78,45,10,29.72,29.59,14,1,17,0.01
2014-1-3,91,76,67,68,63,56,92,68,35,29.75,29.40,9,2,10,0.02
2014-1-4,99,76,68,67,62,53,91,65,26,29.76,29.44,11,2,15,0.00
2014-1-5,106,73,62,64,49,-100,93,55,10,29.81,29.57,11,-57,15,0.00
2014-1-6,102,61,62,61,9,-100,94,28,10,29.94,29.65,13,-243,17,0.00
2014-1-7,75,66,61,59,55,52,85,69,50,30.10,29.93,12,2,15,0.00
2014-1-8,74,64,59,56,54,50,87,69,51,30.15,30.06,9,2,12,0.00
2014-1-10,98,54,69,59,6,-100,71,32,27,30.11,30.01,7,-322,7,0.00
2014-1-11,104,80,64,62,56,-100,86,50,11,30.05,29.88,10,-6,12,0.00
2014-1-12,97,51,65,64,6,-100,81,37,23,30.09,29.93,13,-328,17,0.00
2014-1-13,92,45,65,62,-10,-100,83,29,29,30.12,30.01,11,-422,12,0.00
2014-1-14,104,23,60,63,-56,-100,95,14,10,30.14,30.01,7,-721,12,0.00
2014-1-15,113,41,69,62,-35,-100,73,11,10,30.14,29.97,11,-568,12,0.00
2014-1-16,106,32,75,66,-48,-100,66,9,10,30.06,29.91,11,-657,15,0.00
2014-1-17,105,19,64,65,-67,-100,99,8,10,29.99,29.84,9,-787,12,0.00
2014-1-18,110,71,60,63,21,-100,99,32,10,29.89,29.71,9,-189,12,0.00
2014-1-19,99,77,65,66,62,52,93,62,28,29.79,29.69,14,2,17,0.00
2014-1-20,93,75,67,67,64,60,95,72,39,29.79,29.66,14,2,17,0.00
2014-1-21,87,71,65,69,66,64,99,86,50,29.83,29.68,9,1,12,0.05
2014-1-22,72,67,64,68,63,58,99,87,71,30.14,29.84,14,2,15,0.02
2014-1-23,73,67,63,64,61,-100,97,84,64,30.15,30.04,9,-3,10,0.00
2014-1-24,98,75,64,67,61,-100,99,69,27,30.03,29.66,10,-7,40,0.19
2014-1-25,86,69,63,69,58,-100,99,70,35,30.10,29.69,23,-1,28,0.01
2014-1-26,77,64,60,57,51,-100,87,65,41,30.22,30.08,10,-13,12,0.00
2014-1-27,92,57,53,58,25,-100,91,49,25,30.21,30.08,11,-180,15,0.00
2014-1-28,98,64,60,59,27,-100,85,41,21,30.13,29.95,12,-179,15,0.00
2014-1-29,104,79,59,61,52,-100,97,50,10,30.00,29.87,11,-9,12,0.00
2014-1-30,96,70,61,64,46,-100,99,57,21,30.06,29.92,9,-68,12,0.00
2014-1-31,106,77,57,59,48,-100,93,47,10,29.95,29.79,9,-28,12,0.00
2014-2-1,101,78,67,65,58,-100,83,55,22,29.93,29.79,12,-13,15,0.00
2014-2-2,97,70,65,65,51,-100,96,63,33,29.95,29.85,10,-60,12,0.00
2014-2-3,104,77,64,62,55,-100,88,54,10,29.95,29.78,10,-9,12,0.00
2014-2-4,88,68,60,64,60,54,95,78,36,30.14,29.78,19,3,22,0.00
2014-2-5,74,65,61,56,51,47,81,63,42,30.16,30.08,13,2,17,0.00
2014-2-6,81,67,60,55,52,47,80,62,36,30.09,29.95,10,1,12,0.00
2014-2-7,88,60,52,56,53,51,98,82,33,29.99,29.93,6,0,7,0.00
2014-2-14,69,68,68,68,67,67,97,95,94,29.69,29.67,1,0,2,0.07
2014-2-15,79,72,67,71,69,-2,99,91,74,29.69,29.46,7,0,10,0.25
2014-2-16,79,70,65,75,65,-100,99,89,77,29.77,29.47,15,-21,17,0.66
2014-2-17,78,66,62,66,58,-100,98,79,54,29.91,29.77,9,-17,12,0.04
2014-2-18,84,69,63,68,63,59,96,82,54,29.89,29.72,6,0,7,0.01
2014-2-19,95,71,68,74,62,-100,99,84,45,29.71,29.55,7,-44,10,0.73
2014-2-20,99,76,65,70,60,-100,98,65,24,29.86,29.57,9,-7,12,0.01
2014-2-21,90,71,62,60,54,36,89,60,23,30.04,29.86,11,2,15,0.00
2014-2-22,88,69,60,59,57,49,87,67,29,30.12,29.99,11,2,15,0.00
2014-2-23,78,59,62,60,36,-100,86,59,43,30.16,30.08,11,-130,12,0.00
2014-2-24,88,55,63,62,25,-100,94,56,38,30.11,29.97,10,-220,15,0.11
2014-2-25,91,80,67,62,59,53,85,53,30,0.00,40.00,5,1,7,0.00